SV1BYK-2 Weather Reports


Display with metric or nautical units.
time (UTC)temp
F
wind
direction
speed
MPH
gust
MPH
rain 1hr
in
rain 24hr
in
rain mn
in
humidity
%
barometer
mb
20260904063603 87 298 0.0 7.0 0.00 0.00 0.00 45 1007.8
20260904062704 83 302 4.0 8.0 0.00 0.00 0.00 48 1007.8
20260904061804 83 294 4.0 11.0 0.00 0.00 0.00 52 1007.7
20260904061113 83 289 8.0 11.0 0.00 0.00 0.00 52 1007.5
20260904060216 83 282 0.0 11.0 0.00 0.00 0.00 52 1007.7
20260904055617 83 274 2.0 8.0 0.00 0.00 0.00 52 1007.8
20260904054503 82 284 4.0 9.0 0.00 0.00 0.00 55 1007.8
20260904053603 81 293 7.0 9.0 0.00 0.00 0.00 55 1007.6
20260904052914 81 286 5.0 13.0 0.00 0.00 0.00 55 1007.6
20260904051803 81 284 4.0 11.0 0.00 0.00 0.00 56 1007.6
20260904051114 80 285 8.0 11.0 0.00 0.00 0.00 56 1007.7
20260904050004 80 296 5.0 11.0 0.00 0.00 0.00 56 1007.4
20260904045613 80 294 5.0 11.0 0.00 0.00 0.00 57 1007.4
20260904044503 79 298 4.0 13.0 0.00 0.00 0.00 57 1007.5
20260904043603 79 297 8.0 14.0 0.00 0.00 0.00 57 1007.3
20260904042703 79 308 8.0 17.0 0.00 0.00 0.00 57 1007.6
20260904042017 79 311 6.0 15.0 0.00 0.00 0.00 57 1007.6
20260904040903 79 307 8.0 15.0 0.00 0.00 0.00 57 1007.6
20260904040217 79 301 5.0 18.0 0.00 0.00 0.00 57 1007.4
20260904035614 79 306 7.0 20.0 0.00 0.00 0.00 58 1007.4
20260904034716 79 312 12.0 23.0 0.00 0.00 0.00 58 1007.5
20260904033813 79 306 14.0 23.0 0.00 0.00 0.00 57 1007.1
20260904032703 79 329 2.0 11.0 0.00 0.00 0.00 55 1007.5
20260904031803 80 307 4.0 11.0 0.00 0.00 0.00 54 1007.4
20260904030903 80 308 6.0 9.0 0.00 0.00 0.00 54 1007.5
20260904030004 80 311 4.0 13.0 0.00 0.00 0.00 54 1007.3
20260904025614 80 310 6.0 14.0 0.00 0.00 0.00 54 1007.1
20260904024717 79 303 4.0 14.0 0.00 0.00 0.00 54 1007.2
20260904023604 79 310 1.0 13.0 0.00 0.00 0.00 52 1007.1
20260904022916 80 303 8.0 13.0 0.00 0.00 0.00 52 1007.2
20260904021804 79 295 4.0 14.0 0.00 0.00 0.00 53 1007.4
20260904020903 80 295 4.0 11.0 0.00 0.00 0.00 53 1007.1
20260904020213 80 300 4.0 11.0 0.00 0.00 0.00 53 1007.2
20260904015403 80 297 3.0 8.0 0.00 0.00 0.00 52 1007.2
20260904014503 80 299 2.0 4.0 0.00 0.00 0.00 51 1007.1
20260904013815 80 303 0.0 4.0 0.00 0.00 0.00 51 1007.2
20260904012917 80 295 1.0 6.0 0.00 0.00 0.00 51 1007.3
20260904011804 80 300 2.0 8.0 0.00 0.00 0.00 50 1006.9
20260904011117 81 293 2.0 4.0 0.00 0.00 0.00 46 1007.2
20260904010214 80 292 2.0 4.0 0.00 0.00 0.00 45 1007.3
20260904005404 80 292 0.0 2.0 0.00 0.00 0.00 46 1007.2
20260904004713 80 292 0.0 2.0 0.00 0.00 0.00 46 1007.1
20260904003603 80 287 0.0 2.0 0.00 0.00 0.00 45 1007.3
20260904002918 80 294 0.0 2.0 0.00 0.00 0.00 44 1007.0
20260904002015 80 283 2.0 4.0 0.00 0.00 0.00 44 1007.1
20260904001117 80 288 0.0 4.0 0.00 0.00 0.00 45 1007.1
20260904000003 81 298 3.0 7.0 0.00 0.00 0.00 47 1007.2
20260903235404 81 291 2.0 4.0 0.00 0.00 0.00 46 1007.1
20260903234713 81 295 2.0 8.0 0.00 0.00 0.00 45 1007.0
20260903233816 82 300 5.0 8.0 0.00 0.00 0.00 44 1007.4
20260903232703 82 309 0.0 6.0 0.00 0.00 0.00 41 1007.2
20260903231803 82 304 4.0 8.0 0.00 0.00 0.00 41 1007.3
20260903231113 82 307 2.0 6.0 0.00 0.00 0.00 40 1007.3
20260903230215 82 327 0.0 4.0 0.00 0.00 0.00 40 1007.2
20260903225403 82 306 1.0 7.0 0.00 0.00 0.00 39 1007.1
20260903224503 82 301 1.0 6.0 0.00 0.00 0.00 38 1007.2
20260903223816 83 301 2.0 6.0 0.00 0.00 0.00 38 1007.2
20260903222914 83 292 2.0 4.0 0.00 0.00 0.00 38 1007.1
20260903222016 83 292 2.0 4.0 0.00 0.00 0.00 39 1007.1
20260903220904 82 292 0.0 2.0 0.00 0.00 0.00 39 1007.2
20260903220216 83 293 0.0 4.0 0.00 0.00 0.00 38 1007.0
20260903215403 83 302 1.0 4.0 0.00 0.00 0.00 38 1007.1
20260903214503 82 0 0.0 0.0 0.00 0.00 0.00 40 1007.1
20260903213603 82 0 0.0 0.0 0.00 0.00 0.00 40 1007.1
20260903212914 82 81 0.0 2.0 0.00 0.00 0.00 40 1007.1
20260903211803 83 359 1.0 2.0 0.00 0.00 0.00 39 1007.1
20260903210904 82 0 0.0 0.0 0.00 0.00 0.00 40 1007.0
20260903210010 82 0 0.0 0.0 0.00 0.00 0.00 40 1007.2
20260903205613 82 292 0.0 2.0 0.00 0.00 0.00 40 1007.2
20260903204715 83 308 0.0 2.0 0.00 0.00 0.00 39 1007.2
20260903203813 83 315 0.0 4.0 0.00 0.00 0.00 39 1007.0
20260903202703 83 315 1.0 4.0 0.00 0.00 0.00 39 1007.2
20260903201803 83 70 0.0 6.0 0.00 0.00 0.00 39 1007.2
20260903200903 83 302 0.0 4.0 0.00 0.00 0.00 39 1007.2
20260903200004 83 331 0.0 2.0 0.00 0.00 0.00 39 1007.2
20260903195404 83 287 0.0 4.0 0.00 0.00 0.00 40 1007.2
20260903194504 83 259 0.0 2.0 0.00 0.00 0.00 39 1007.0
20260903193604 83 313 1.0 9.0 0.00 0.00 0.00 39 1007.4
20260903192916 84 288 1.0 6.0 0.00 0.00 0.00 38 1007.0
20260903192013 84 279 1.0 4.0 0.00 0.00 0.00 38 1007.1
20260903191115 84 248 1.0 6.0 0.00 0.00 0.00 38 1007.1
20260903190213 84 238 2.0 6.0 0.00 0.00 0.00 38 1007.1
20260903185614 84 231 2.0 4.0 0.00 0.00 0.00 38 1007.1
20260903184717 85 254 2.0 6.0 0.00 0.00 0.00 38 1006.7
20260903183604 85 244 2.0 7.0 0.00 0.00 0.00 38 1006.3
20260903182916 85 206 3.0 7.0 0.00 0.00 0.00 38 1006.4
20260903182014 85 260 2.0 6.0 0.00 0.00 0.00 39 1006.4
20260903180904 85 276 2.0 7.0 0.00 0.00 0.00 39 1006.2
20260903180004 85 273 2.0 7.0 0.00 0.00 0.00 39 1006.5
20260903175615 85 267 0.0 7.0 0.00 0.00 0.00 39 1006.4
20260903174503 85 259 1.0 4.0 0.00 0.00 0.00 39 1006.3
20260903173603 85 286 2.0 7.0 0.00 0.00 0.00 39 1006.3
20260903172917 85 313 1.0 7.0 0.00 0.00 0.00 39 1006.2
20260903171804 85 298 2.0 9.0 0.00 0.00 0.00 39 1006.2
20260903171117 86 228 2.0 9.0 0.00 0.00 0.00 39 1006.1
20260903170004 86 257 2.0 7.0 0.00 0.00 0.00 39 1006.0
20260903165616 86 242 2.0 7.0 0.00 0.00 0.00 39 1005.8
20260903164713 86 237 2.0 6.0 0.00 0.00 0.00 39 1005.6
20260903163815 87 235 2.0 8.0 0.00 0.00 0.00 39 1005.8
20260903162704 87 248 3.0 8.0 0.00 0.00 0.00 38 1005.8
20260903161803 87 260 3.0 9.0 0.00 0.00 0.00 38 1005.7
20260903161117 87 252 3.0 8.0 0.00 0.00 0.00 38 1005.7
20260903160215 88 242 3.0 11.0 0.00 0.00 0.00 37 1005.8
20260903155616 89 259 4.0 9.0 0.00 0.00 0.00 36 1005.8
20260903154504 89 243 3.0 11.0 0.00 0.00 0.00 36 1005.4
20260903153604 90 250 4.0 9.0 0.00 0.00 0.00 36 1005.4
20260903152913 90 235 4.0 9.0 0.00 0.00 0.00 36 1005.6
20260903152016 90 260 3.0 11.0 0.00 0.00 0.00 37 1005.3
20260903151113 89 226 4.0 9.0 0.00 0.00 0.00 38 1005.3
20260903150215 90 235 4.0 9.0 0.00 0.00 0.00 38 1005.4
20260903145403 90 262 4.0 9.0 0.00 0.00 0.00 38 1005.6
20260903144503 90 271 3.0 9.0 0.00 0.00 0.00 40 1005.4
20260903143603 91 267 4.0 9.0 0.00 0.00 0.00 39 1005.2
20260903142704 91 259 3.0 8.0 0.00 0.00 0.00 38 1005.2
20260903142016 92 234 4.0 9.0 0.00 0.00 0.00 37 1005.2
20260903141113 93 252 4.0 9.0 0.00 0.00 0.00 36 1005.3
20260903140004 93 266 4.0 9.0 0.00 0.00 0.00 36 1005.3
20260903135617 94 260 4.0 9.0 0.00 0.00 0.00 35 1005.6
20260903134503 94 230 2.0 11.0 0.00 0.00 0.00 35 1005.3
20260903133603 94 249 4.0 9.0 0.00 0.00 0.00 35 1004.9
20260903132703 95 236 3.0 8.0 0.00 0.00 0.00 34 1005.4
20260903131803 95 249 4.0 9.0 0.00 0.00 0.00 34 1005.3
20260903131114 94 238 4.0 9.0 0.00 0.00 0.00 34 1005.4
20260903130217 94 229 5.0 9.0 0.00 0.00 0.00 34 1005.5
20260903125404 95 247 3.0 7.0 0.00 0.00 0.00 34 1005.5
20260903124504 94 269 3.0 14.0 0.00 0.00 0.00 35 1005.7
20260903123813 94 282 5.0 14.0 0.00 0.00 0.00 35 1005.7
20260903122703 95 227 3.0 9.0 0.00 0.00 0.00 34 1005.5
20260903122017 95 254 3.0 11.0 0.00 0.00 0.00 34 1005.7
20260903120903 94 255 4.0 11.0 0.00 0.00 0.00 35 1005.7
20260903120004 93 284 4.0 11.0 0.00 0.00 0.00 36 1005.6
20260903115614 94 269 4.0 9.0 0.00 0.00 0.00 36 1005.8
20260903114504 94 99 4.0 11.0 0.00 0.00 0.00 36 1005.9
20260903113813 93 227 4.0 11.0 0.00 0.00 0.00 37 1006.1
20260903112916 93 254 5.0 11.0 0.00 0.00 0.00 37 1006.0
20260903111803 94 108 3.0 11.0 0.00 0.00 0.00 38 1006.0
20260903110903 93 272 2.0 9.0 0.00 0.00 0.00 37 1006.3
20260903110218 93 233 4.0 9.0 0.00 0.00 0.00 38 1006.2
20260903105403 93 225 3.0 8.0 0.00 0.00 0.00 38 1006.0
20260903104717 94 246 3.0 7.0 0.00 0.00 0.00 37 1006.0
20260903103814 95 246 2.0 6.0 0.00 0.00 0.00 36 1006.0
20260903102916 94 289 2.0 15.0 0.00 0.00 0.00 35 1006.2
20260903102014 94 274 2.0 7.0 0.00 0.00 0.00 35 1006.2
20260903101116 93 236 2.0 8.0 0.00 0.00 0.00 36 1006.7
20260903100213 93 229 4.0 11.0 0.00 0.00 0.00 37 1006.3
20260903095615 93 238 2.0 8.0 0.00 0.00 0.00 36 1006.5
20260903094717 93 236 2.0 7.0 0.00 0.00 0.00 36 1006.8
20260903093815 93 257 3.0 7.0 0.00 0.00 0.00 36 1006.5
20260903092703 93 248 3.0 8.0 0.00 0.00 0.00 36 1006.8
20260903091803 93 264 4.0 14.0 0.00 0.00 0.00 36 1006.9
20260903090903 92 246 4.0 9.0 0.00 0.00 0.00 37 1006.9
20260903090214 92 264 3.0 9.0 0.00 0.00 0.00 37 1007.1
20260903085616 92 282 4.0 7.0 0.00 0.00 0.00 37 1007.1
20260903084713 93 247 3.0 7.0 0.00 0.00 0.00 35 1007.0
20260903083603 92 264 3.0 7.0 0.00 0.00 0.00 35 1007.3
20260903082703 93 272 2.0 4.0 0.00 0.00 0.00 35 1007.2
20260903082015 92 298 1.0 8.0 0.00 0.00 0.00 35 1007.1
20260903081117 92 240 3.0 8.0 0.00 0.00 0.00 35 1007.1
20260903080004 91 268 2.0 4.0 0.00 0.00 0.00 35 1007.1
20260903075403 90 351 2.0 4.0 0.00 0.00 0.00 38 1007.1
20260903074504 88 87 1.0 6.0 0.00 0.00 0.00 42 1007.2
20260903073816 88 94 1.0 4.0 0.00 0.00 0.00 42 1007.2
20260903072704 88 273 1.0 4.0 0.00 0.00 0.00 42 1007.2
20260903072016 88 267 2.0 6.0 0.00 0.00 0.00 42 1007.3
20260903071113 88 270 2.0 7.0 0.00 0.00 0.00 43 1007.1
20260903070004 88 258 2.0 4.0 0.00 0.00 0.00 44 1007.1
20260903065403 87 271 2.0 4.0 0.00 0.00 0.00 45 1007.3
20260903064714 87 282 0.0 4.0 0.00 0.00 0.00 45 1007.3